[[{"header":{"parameterUnit":"m.s-1","parameterCategory":1,"la1":30.2991,"la2":30.254,"lo1":-89.0895,"lo2":-89.0444,"dy":0.0017,"dx":0.0017,"nx":28,"ny":28,"refTime":"2024-08-23T03:00:00:Z","depth":0,"parameterNumber":2,"parameterNumberName":"U-component_of_WINDS"},"data":[0,0,0,0,0,0,0,0,0,0,0,0,0,0,0,0,0,0,0,0,0,0,0,0,0,0,0,0,0,0,0,0,0,0,0,0,0,0,0,0,0,0,0,0,0,0,0,0,0,0,0,0,0,0,0,0,0,0,-5.4487,-5.4487,0,-5.4489,-5.4489,-5.4489,-5.4383,-5.438,-5.4377,-5.4375,-5.4378,-5.4381,-5.4383,0,0,0,0,0,0,0,0,0,0,0,0,0,-5.4396,-5.4398,-5.4487,-5.4487,-5.4487,-5.4489,-5.4489,-5.4489,-5.4383,-5.438,-5.4377,-5.4373,-5.4377,-5.438,-5.4384,0,0,0,0,0,0,0,0,0,0,0,0,0,-5.442,-5.4399,-5.4487,-5.4435,-5.443,-5.4489,-5.4489,-5.4489,-5.4384,-5.438,-5.4376,-5.4372,-5.4376,-5.438,-5.4384,-5.4494,0,0,-5.4397,-5.4398,0,0,0,0,0,0,0,0,-5.4419,-5.4424,-5.4443,-5.4439,-5.4433,-5.4431,-5.4458,-5.4491,-5.4385,-5.4402,-5.4375,-5.437,-5.4399,-5.4401,-5.4411,-5.4494,-5.4494,-5.4397,-5.4399,-5.4401,-5.4402,0,0,0,0,0,0,0,-5.4417,-5.4423,-5.4488,-5.4443,-5.4437,-5.4412,-5.4411,-5.4464,-5.4424,-5.44,-5.4392,-5.4394,-5.4396,-5.4407,-5.441,-5.4494,-5.4397,-5.44,-5.4403,-5.4405,-5.467,-5.4674,0,0,0,0,0,0,-5.4423,-5.4422,-5.4488,-5.4488,-5.4416,-5.4417,-5.4416,-5.4436,-5.4423,-5.4417,-5.4397,-5.4389,-5.4402,-5.4406,-5.441,-5.4539,-5.4401,-5.4405,-5.4407,-5.4665,-5.4671,-5.4676,0,0,0,0,0,0,-5.4421,-5.4429,-5.4488,-5.4453,-5.4459,-5.4423,-5.4447,-5.4439,-5.445,-5.4421,-5.4414,-5.4416,-5.4399,-5.4404,-5.4474,-5.4538,-5.4407,-5.4411,-5.466,-5.4667,-5.4674,-5.4797,0,0,0,0,0,0,-5.4419,-5.443,-5.447,-5.4455,-5.4461,-5.4552,-5.4451,-5.4442,-5.4457,-5.4446,-5.4437,-5.4431,-5.4396,-5.4469,-5.4478,-5.4541,-5.4414,-5.4654,-5.4663,-5.4671,-5.4788,-5.4808,-5.4825,0,0,0,0,0,-5.4416,-5.4505,-5.4473,-5.4481,-5.4511,-5.4555,-5.4559,-5.4516,-5.4462,-5.4503,-5.4486,-5.4432,-5.4529,-5.4477,-5.4487,-5.4551,-5.465,-5.4661,-5.4671,-5.4779,-5.4804,-5.4825,0,0,0,0,0,0,-5.4528,-5.4501,-5.4466,-5.4552,-5.4557,-5.4537,-5.4587,-5.4543,-5.4564,-5.4552,-5.4499,-5.4498,-5.4577,-5.4571,-5.4513,-5.4658,-5.458,-5.4593,-5.4659,-5.4682,-5.4701,-5.4701,-5.4417,0,0,0,0,0,-5.4563,-5.46,-5.4575,-5.4654,-5.4658,-5.4623,-5.4641,-5.4608,-5.4611,-5.4612,-5.4599,-5.4605,-5.4637,-5.4659,-5.4687,-5.4786,-5.4784,-5.4836,-5.4855,-5.487,-5.4882,-5.4937,-5.496,-5.471,-5.471,-5.471,0,0,-5.4635,-5.4625,-5.4652,-5.4676,-5.4676,-5.4718,-5.4625,-5.4672,-5.4703,-5.4619,-5.4685,-5.4677,-5.4679,-5.4765,-5.4802,-5.4762,-5.4951,-5.4883,-5.4896,-5.4899,-5.495,-5.4973,-5.4994,-5.4717,-5.4716,-5.4715,0,0,-5.4787,-5.4783,-5.4849,-5.4851,-5.4852,-5.4829,-5.4845,-5.4833,-5.4824,-5.4889,-5.4827,-5.4864,-5.4919,-5.4925,-5.4935,-5.5093,-5.5045,-5.5103,-5.5202,-5.5255,-5.5275,-5.5292,-5.535,-5.5371,-5.5115,-5.5116,-5.5116,0,-5.4877,-5.4936,-5.4889,-5.4941,-5.4954,-5.4881,-5.4948,-5.4953,-5.4963,-5.4975,-5.493,-5.5,-5.4997,-5.5084,-5.5123,-5.5133,-5.5151,-5.5104,-5.5276,-5.5293,-5.5308,-5.5363,-5.5385,-5.5123,-5.5122,-5.5121,-5.5121,0,-5.5047,-5.509,-5.5143,-5.5155,-5.5175,-5.5234,-5.5197,-5.5223,-5.5189,-5.5171,-5.5239,-5.5233,-5.5259,-5.5277,-5.5244,-5.5361,-5.5336,-5.5285,-5.5205,-5.534,-5.5391,-5.5411,-5.5133,-5.5131,-5.5128,-5.5127,0,0,-5.5269,-5.5256,-5.5276,-5.5282,-5.5279,-5.5311,-5.5369,-5.5394,-5.5418,-5.5429,-5.5477,-5.5527,-5.548,-5.5491,-5.5459,-5.5506,-5.5634,-5.5448,-5.5447,-5.5484,-5.5764,-5.5804,-5.5829,-5.5602,-5.5606,-5.5609,-5.5764,0,-5.5418,-5.5514,-5.5475,-5.5575,-5.5615,-5.5547,-5.5597,-5.5602,-5.5587,-5.5619,-5.5603,-5.564,-5.5574,-5.5581,-5.5624,-5.5609,-5.5689,-5.5597,-5.5647,-5.565,-5.5649,-5.5855,-5.5896,-5.6043,-5.5784,-5.5787,-5.5789,0,-5.5604,-5.5623,-5.5728,-5.572,-5.5735,-5.5781,-5.5803,-5.5834,-5.5839,-5.5825,-5.5839,-5.5797,-5.5854,-5.5775,-5.5855,-5.5793,-5.5811,-5.5808,-5.5812,-5.5816,-5.5728,-5.5865,-5.6089,-5.6112,-5.582,-5.5817,-5.5815,0,-5.5758,-5.5809,-5.5879,-5.5886,-5.5878,-5.5912,-5.5911,-5.5911,-5.593,-5.5949,-5.5961,-5.5987,-5.6002,-5.6024,-5.5991,-5.5936,-5.6076,-5.5993,-5.6067,-5.6068,-5.61,-5.6098,-5.6331,-5.6111,-5.611,-5.611,-5.6109,0,-5.5929,-5.5996,-5.5948,-5.5991,-5.6065,-5.602,-5.6095,-5.6086,-5.6087,-5.6128,-5.6071,-5.6112,-5.6064,-5.6101,-5.6075,-5.6146,-5.6153,-5.6144,-5.6137,-5.615,-5.6151,-5.6162,-5.6151,-5.6116,-5.6114,-5.6113,-5.6112,0,-5.6113,-5.6083,-5.6155,-5.6142,-5.6141,-5.6196,-5.6186,-5.6226,-5.6207,-5.6261,-5.6271,-5.6243,-5.6283,-5.6251,-5.6291,-5.6274,-5.6368,-5.6345,-5.6366,-5.6361,-5.6437,-5.6431,-5.6685,-5.6717,-5.6475,-5.6477,-5.6479,0,-5.6224,-5.6274,-5.6268,-5.6291,-5.6293,-5.6332,-5.6351,-5.6309,-5.6332,-5.6342,-5.6382,-5.6417,-5.6443,-5.6511,-5.6495,-5.6525,-5.6504,-5.6591,-5.6508,-5.652,-5.6507,-5.6505,-5.651,-5.6608,-5.6611,-5.6613,-5.6615,0,-5.6426,-5.6409,-5.6439,-5.6465,-5.6489,-5.6507,-5.6521,-5.6544,-5.6501,-5.653,-5.657,-5.6591,-5.6632,-5.6668,-5.6693,-5.6693,-5.6648,-5.6641,-5.666,-5.6674,-5.6685,-5.6682,-5.6413,-5.6636,-5.6633,-5.6632,-5.6631,-5.663,-5.6577,-5.662,-5.6622,-5.6658,-5.6664,-5.6679,-5.6717,-5.6704,-5.6736,-5.6766,-5.674,-5.6789,-5.6795,-5.6824,-5.683,-5.6869,-5.6833,-5.686,-5.6867,-5.6874,-5.6886,-5.6679,-5.6873,-5.6872,-5.6872,-5.6871,-5.6871,0,-5.6777,-5.6776,-5.6809,-5.6831,-5.686,-5.6814,-5.6828,-5.6855,-5.6899,-5.6908,-5.6935,-5.6983,-5.7019,-5.7007,-5.7039,-5.7073,-5.7053,-5.7083,-5.708,-5.7081,-5.6915,-5.6896,-5.7098,-5.7098,-5.7098,-5.7098,-5.7098,-5.7098,-5.6885,-5.6954,-5.6939,-5.7012,-5.701,-5.7058,-5.707,-5.7084,-5.7091,-5.7147,-5.7176,-5.7168,-5.7169,-5.7201,-5.7233,-5.7228,-5.7244,-5.7281,-5.727,-5.7115,-5.7093,-5.7071,-5.7053,-5.7285,-5.7285,-5.7432,-5.7434,-5.7435]},{"header":{"parameterUnit":"m.s-1","parameterCategory":1,"la1":30.2991,"la2":30.254,"lo1":-89.0895,"lo2":-89.0444,"dy":0.0017,"dx":0.0017,"nx":28,"ny":28,"refTime":"2024-08-23T03:00:00:Z","depth":0,"parameterNumber":3,"parameterNumberName":"V-component_of_WINDS"},"data":[0,0,0,0,0,0,0,0,0,0,0,0,0,0,0,0,0,0,0,0,0,0,0,0,0,0,0,0,0,0,0,0,0,0,0,0,0,0,0,0,0,0,0,0,0,0,0,0,0,0,0,0,0,0,0,0,0,0,0.5888,0.5888,0,0.5831,0.5831,0.583,0.5831,0.5832,0.5833,0.5834,0.577,0.5767,0.5765,0,0,0,0,0,0,0,0,0,0,0,0,0,0.5994,0.5992,0.5888,0.5888,0.5887,0.5831,0.5831,0.583,0.5831,0.5832,0.5833,0.5834,0.577,0.5767,0.5764,0,0,0,0,0,0,0,0,0,0,0,0,0,0.5943,0.5991,0.5888,0.5881,0.588,0.5831,0.5831,0.583,0.5831,0.5832,0.5834,0.5835,0.5771,0.5768,0.5764,0.5717,0,0,0.5753,0.5751,0,0,0,0,0,0,0,0,0.5946,0.5939,0.5883,0.5882,0.588,0.584,0.5844,0.5792,0.5831,0.5849,0.5834,0.5835,0.5792,0.5786,0.5773,0.5714,0.5712,0.5752,0.575,0.5749,0.5748,0,0,0,0,0,0,0,0.595,0.5942,0.5865,0.5882,0.588,0.5879,0.5873,0.5834,0.5814,0.5848,0.5848,0.5841,0.5791,0.5776,0.5771,0.5711,0.5753,0.5749,0.5747,0.5746,0.561,0.5609,0,0,0,0,0,0,0.5955,0.5945,0.5867,0.5864,0.5917,0.5876,0.587,0.5851,0.5815,0.581,0.5841,0.5842,0.5782,0.5776,0.5769,0.5711,0.5749,0.5745,0.5743,0.5612,0.561,0.5608,0,0,0,0,0,0,0.5958,0.5948,0.587,0.5904,0.5894,0.5873,0.5853,0.585,0.5835,0.5809,0.5805,0.5829,0.5783,0.5774,0.573,0.5708,0.5744,0.574,0.5613,0.5611,0.5609,0.5594,0,0,0,0,0,0,0.5961,0.5949,0.5932,0.5904,0.5892,0.5833,0.5851,0.5848,0.5829,0.583,0.5798,0.5793,0.5783,0.5736,0.5727,0.5704,0.5737,0.5615,0.5612,0.561,0.5597,0.5592,0.5588,0,0,0,0,0,0.5964,0.5929,0.5931,0.5922,0.5871,0.5832,0.5825,0.5816,0.5828,0.5809,0.5793,0.5794,0.5713,0.5731,0.5721,0.5697,0.5616,0.5613,0.561,0.5598,0.5593,0.5588,0,0,0,0,0,0,0.5953,0.5925,0.5927,0.5882,0.586,0.5832,0.5809,0.581,0.5782,0.5784,0.5772,0.5764,0.572,0.5705,0.5725,0.565,0.5666,0.5661,0.5661,0.5655,0.5651,0.5654,0.5734,0,0,0,0,0,0.5946,0.5918,0.5895,0.5857,0.5846,0.583,0.5813,0.5808,0.5783,0.5772,0.5753,0.5727,0.5696,0.5675,0.5645,0.5596,0.5587,0.5574,0.557,0.5566,0.5561,0.5532,0.5525,0.5598,0.5598,0.5598,0,0,0.5929,0.5911,0.5894,0.5855,0.5837,0.5806,0.5822,0.5789,0.5766,0.5767,0.5724,0.5709,0.568,0.5633,0.5611,0.5619,0.554,0.5562,0.556,0.5556,0.5528,0.5521,0.5515,0.5596,0.5596,0.5597,0,0,0.5884,0.5868,0.5835,0.5817,0.579,0.578,0.5772,0.5745,0.5735,0.5693,0.5693,0.5665,0.5612,0.5591,0.5573,0.5522,0.5521,0.5512,0.5488,0.5461,0.5455,0.545,0.5429,0.5422,0.5507,0.5507,0.5507,0,0.5866,0.5822,0.5817,0.5784,0.5766,0.5769,0.5734,0.5716,0.568,0.5667,0.5677,0.561,0.5591,0.5538,0.5526,0.5512,0.5501,0.5514,0.5457,0.5451,0.5446,0.5426,0.5419,0.5506,0.5506,0.5507,0.5507,0,0.5801,0.5771,0.5747,0.5714,0.5694,0.566,0.5648,0.5628,0.5625,0.5614,0.557,0.5548,0.5512,0.55,0.5497,0.5447,0.5452,0.546,0.5475,0.5438,0.5419,0.5412,0.5505,0.5505,0.5505,0.5506,0,0,0.5743,0.571,0.5701,0.5686,0.5657,0.5633,0.56,0.5568,0.555,0.5526,0.5495,0.5451,0.5458,0.5438,0.5433,0.5409,0.5367,0.5419,0.5418,0.5408,0.5309,0.5301,0.5293,0.5368,0.5367,0.5366,0.531,0,0.5692,0.5634,0.5629,0.5576,0.5547,0.555,0.5521,0.5499,0.5488,0.5461,0.5448,0.5416,0.5429,0.5416,0.5393,0.5377,0.5347,0.5381,0.5337,0.5336,0.5341,0.5283,0.5275,0.5224,0.5303,0.5302,0.5301,0,0.5625,0.56,0.5545,0.5521,0.5509,0.5483,0.5453,0.5428,0.5403,0.5397,0.5376,0.5373,0.5337,0.5357,0.5306,0.533,0.5312,0.5302,0.5299,0.5292,0.5314,0.5271,0.5207,0.5198,0.529,0.5291,0.5292,0,0.5585,0.5539,0.5499,0.5487,0.5459,0.544,0.5427,0.5404,0.5385,0.5359,0.5346,0.5316,0.5298,0.5274,0.5263,0.5279,0.5212,0.5231,0.5203,0.5203,0.5185,0.5186,0.5114,0.5179,0.5179,0.518,0.518,0,0.5527,0.5492,0.5481,0.5457,0.5418,0.5412,0.5373,0.5361,0.5341,0.5313,0.5314,0.5288,0.5277,0.5248,0.5239,0.5197,0.5189,0.5181,0.5179,0.5179,0.518,0.5164,0.5166,0.5178,0.5178,0.5178,0.5179,0,0.5474,0.5466,0.5423,0.5401,0.5395,0.5367,0.5347,0.5322,0.5313,0.5277,0.5268,0.5252,0.5218,0.5207,0.5165,0.5159,0.5109,0.5111,0.5118,0.5116,0.5087,0.5089,0.5001,0.4988,0.5064,0.5064,0.5063,0,0.5436,0.541,0.5386,0.5368,0.5355,0.5326,0.5308,0.5302,0.5282,0.5253,0.5232,0.5199,0.5172,0.5117,0.5101,0.5069,0.5068,0.5039,0.5063,0.5064,0.5064,0.5064,0.5061,0.5034,0.5033,0.5032,0.5032,0,0.5368,0.5366,0.534,0.5313,0.5291,0.5269,0.5247,0.5232,0.5223,0.52,0.5167,0.5146,0.5105,0.5071,0.5039,0.5024,0.5025,0.5025,0.5016,0.5015,0.5018,0.5013,0.5102,0.5026,0.5027,0.5027,0.5027,0.5028,0.5319,0.5296,0.5276,0.5246,0.523,0.5211,0.5186,0.5175,0.5148,0.5114,0.5113,0.5076,0.5053,0.501,0.4994,0.4964,0.4971,0.4959,0.4955,0.4952,0.4948,0.5027,0.4958,0.4958,0.4959,0.4959,0.4959,0,0.5249,0.5237,0.5211,0.5182,0.5158,0.5166,0.5142,0.5122,0.509,0.5069,0.5044,0.5005,0.4973,0.4955,0.4922,0.4902,0.4901,0.4893,0.4893,0.4889,0.4945,0.4954,0.4894,0.4894,0.4894,0.4894,0.4894,0.4894,0.521,0.517,0.5166,0.5117,0.5105,0.507,0.5056,0.5038,0.5021,0.4978,0.4952,0.4942,0.4922,0.4888,0.4859,0.4854,0.4841,0.4831,0.4827,0.4878,0.4885,0.4891,0.49,0.4829,0.4829,0.4773,0.4772,0.4772]}]]